Flag Weather past 2 weeks in Orange, California, U.S.A.

Now
84 °F

Scattered clouds.


Feels Like: 81 °F
Forecast: 50 / 80 °F
Wind: 14 mph from Northeast

Location: John Wayne Airport-Orange County Airport

Current Time: Nov 24, 2014 at 1:51:59 PM

Latest Report: Nov 24, 2014 at 12:53 PM


Visibility: 10 mi

Pressure: 30.16 "Hg

Humidity: 5%

Dew point: 8 °F

Location of OrangeLocation

Historic Weather in Orange — Graph

°F

Orange temperature yesterday

Maximum temperature yesterday: 85 °F (at 12:53 PM)
Minimum temperature yesterday: 57 °F (at 5:53 AM)
Average temperature yesterday: 69 °F

Past Weeks' High & Low Weather Summary

 TemperatureHumidityPressure
High85 °F (Nov 23, 12:53 PM)85% (Nov 14, 2:53 AM)30.22 "Hg (Nov 14, 2:53 AM)
Low53 °F (Nov 18, 4:53 AM)2% (Nov 23, 1:53 PM)29.81 "Hg (Nov 9, 3:53 PM)
Average66 °F53%30.02 "Hg
* Reported Nov 9 11:53 AM — Nov 24 11:53 AM, Orange, Weather by CustomWeather, © 2014

Note: Actual official high and low records may vary slightly from our data, if they occured in-between our weather recording intervals... More about our weather records

Advertising

Orange weather history for previous 24 hours

 ConditionsComfort  
Time TempWeatherWind HumidityBarometerVisibility
11:53 AM
Nov 24
84 °FPartly sunny.12 mph4%30.18 "Hg10 mi
10:53 AM81 °FPartly sunny.12 mph4%30.21 "Hg10 mi
9:53 AM74 °FPartly sunny.3 mph14%30.22 "Hg10 mi
8:53 AM68 °FPartly sunny.No wind19%30.20 "Hg10 mi
7:53 AM60 °FPartly sunny.No wind30%30.18 "Hg10 mi
6:53 AM53 °FScattered clouds.No wind43%30.16 "Hg10 mi
5:53 AM53 °FPassing clouds.No wind43%30.14 "Hg10 mi
4:53 AM53 °FClear.No wind41%30.13 "Hg10 mi
3:53 AM53 °FClear.No wind43%30.11 "Hg10 mi
2:53 AM56 °FClear.No wind34%30.12 "Hg10 mi
1:53 AM57 °FClear.No wind31%30.13 "Hg10 mi
12:53 AM57 °FClear.No wind33%30.13 "Hg10 mi
11:53 PM
Nov 23
58 °FClear.No wind31%30.14 "Hg10 mi
10:53 PM60 °FClear.3 mph25%30.14 "Hg10 mi
9:53 PM62 °FClear.No wind22%30.13 "Hg10 mi
8:53 PM66 °FClear.3 mph19%30.12 "Hg10 mi
7:53 PM66 °FClear.No wind14%30.12 "Hg10 mi
6:53 PM69 °FClear.No wind10%30.10 "Hg10 mi
5:53 PM74 °FPassing clouds.5 mph6%30.08 "Hg10 mi
4:53 PM76 °FPassing clouds.No wind8%30.06 "Hg10 mi
3:53 PM79 °FPartly sunny.6 mph11%30.07 "Hg10 mi
2:53 PM76 °FPartly sunny.8 mph26%30.05 "Hg10 mi
1:53 PM84 °FPassing clouds.16 mph2%30.04 "Hg10 mi
Weather by CustomWeather, © 2014

See weather overviewHow to use our weather pages